IRIDIUM 64 [B] (25287 NORAD) Tracking and Keplerian Element Data

This shows tracking and keplerian element data for the satellite.

Feedback or suggestion? Click here.




ElementValue
Catalog25287
NameIRIDIUM 64 [B]
Epoch Orbit8304
Epoch Day348.91884932
Epoch Year2018
RAAN355.8484
Inclination86.4197
Eccentricity0.0002028
Argument of Perigee88.2478
Mean Anonmoly271.8952
Mean Motion14.38603158
Decay Rate-4.2E-07
L11 25287U 98021C 18348.91884932 -.00000042 00000-0 -20146-4 0 9997
L22 25287 86.4197 355.8484 0002028 88.2478 271.8952 14.38603158 83045

Live tracking and technical data element details for IRIDIUM 64 [B] (NORAD 25287). IRIDIUM 64 [B] can be tracked NOW for your location showing map with azimuth and elevation plus other details from your city location.

Track the satellite on the map from your city or location and see movement details for azimuth, elevation, latitude, longitude, range, height, and movement on the map or in text.







IsCatalogInMostPopularTable: catalog: 25287, numindb: 51
Update: records affected: 1



GetName: 25287 IRIDIUM 64 [B]

Hit Count: updated at: Sat, 15 Dec 2018 19:27:58 GMT